Regional Weather Roundup
Issued by NWS

Home | Current Version | Previous Version | Text Only | Print | Product List | Glossary On
Versions: 1 2 3 4 5 6 7 8 9 10 11 12 13 14 15 16 17 18 19 20 21 22 23 24 25 26 27 28 29 30 31 32 33 34 35 36 37 38 39 40 41 42 43 44 45 46 47 48 49 50
000
ASUS45 KBOI 250910
RWRID

IDAHO REGIONAL WEATHER ROUNDUP
NATIONAL WEATHER SERVICE BOISE ID
300 AM MDT THU AUG 25 2016

NOTE: "FAIR" INDICATES FEW OR NO CLOUDS BELOW 12000 FEET
WITH NO SIGNIFICANT WEATHER AND/OR OBSTRUCTIONS TO VISIBILITY

IDZ012-014-251000-
SOUTHWEST IDAHO


CITY           SKY/WX    TMP DP  RH WIND       PRES   REMARKS
BOISE          CLEAR     59  37  44 SE9       30.07R
CALDWELL       CLEAR     62  40  44 W9        30.05S
MOUNTAIN HOME  PTCLDY    53  28  38 E5        30.09R
$$

IDZ016-017-251000-
SOUTHCENTRAL IDAHO


CITY           SKY/WX    TMP DP  RH WIND       PRES   REMARKS
JEROME         CLEAR     55  34  45 E9        30.15F
TWIN FALLS     CLEAR     49  29  46 SE5       30.15F
$$

IDZ019>023-251000-
SOUTHEAST IDAHO


CITY           SKY/WX    TMP DP  RH WIND       PRES   REMARKS
IDAHO FALLS    CLEAR     42  34  73 N8        30.23S
POCATELLO      CLEAR     51  36  56 NE8       30.19S
REXBURG        CLEAR     48  36  63 NE7       30.24S
$$

IDZ006-010-011-018-031-032-251000-
CENTRAL IDAHO MOUNTAINS


CITY           SKY/WX    TMP DP  RH WIND       PRES   REMARKS
MCCALL         CLEAR     58  34  40 NE6       30.20F
HAILEY         CLEAR     46  32  57 NW8       30.23S
STANLEY          N/A     39  28  64 S3        30.29S
SALMON         CLEAR     54  34  47 N12       30.25S
CHALLIS        CLEAR     52  32  46 NW9       30.24S
$$

IDZ002-004-006-007-026-251000-
NORTHERN IDAHO


CITY           SKY/WX    TMP DP  RH WIND       PRES   REMARKS
LEWISTON       CLEAR     62  40  44 SE6       30.12S
LOWELL           N/A     53  47  79 N3        30.18S
COEUR D`ALENE  CLEAR     59  39  47 NE7       30.18R
MULLAN PASS    CLEAR     50  31  48 SE6       30.33S
$$



USA.gov is the U.S. government's official web portal to all federal, state and local government web resources and services.